Location: Bonn
(50.7330°N, 7.1000°E)
Time: 05:09:33
(UTC+02:00)

Iridium 67 - Visible Passes

Search period start: 29 March 2015 00:00
Search period end: 08 April 2015 01:00
Orbit: 776 x 779 km, 86.4° (Epoch: 28 March)

Date Brightness Start Highest point End Pass type
(mag) Time Alt. Az. Time Alt. Az. Time Alt. Az.
29 Mar 7.7 00:43:07 20° NE 00:43:07 20° NE 00:45:26 10° NNE visible
29 Mar 6.7 03:23:35 37° NNW 03:23:35 37° NNW 03:26:54 10° N visible
30 Mar 8.0 01:09:37 13° NE 01:09:37 13° NE 01:10:52 10° NE visible
30 Mar 6.7 02:50:05 40° N 02:50:05 40° N 02:53:24 10° N visible
30 Mar 7.5 04:30:33 15° NW 04:30:33 15° NW 04:32:50 10° NNW visible
31 Mar 7.0 02:16:35 34° NNE 02:16:35 34° NNE 02:19:44 10° NNE visible
31 Mar 7.1 03:57:03 23° NW 03:57:03 23° NW 04:00:03 10° NNW visible
01 Apr 7.3 01:43:04 25° NE 01:43:04 25° NE 01:45:52 10° NNE visible
01 Apr 6.8 03:23:32 33° NW 03:23:32 33° NW 03:26:53 10° N visible
02 Apr 7.7 01:09:34 17° NE 01:09:34 17° NE 01:11:41 10° NNE visible
02 Apr 6.6 02:50:01 41° NNW 02:50:01 41° NNW 02:53:29 10° N visible
02 Apr 7.7 04:30:29 12° WNW 04:30:29 12° WNW 04:31:58 10° NW visible
03 Apr 8.1 00:36:03 11° ENE 00:36:03 11° ENE 00:36:33 10° NE visible
03 Apr 6.7 02:16:30 41° NNE 02:16:30 41° NNE 02:19:56 10° N visible
03 Apr 7.4 03:56:58 19° NW 03:56:58 19° NW 03:59:45 10° NNW visible
04 Apr 7.0 01:42:59 32° NE 01:42:59 32° NE 01:46:11 10° NNE visible
04 Apr 6.9 03:23:26 28° NW 03:23:26 28° NW 03:26:47 10° NNW visible
05 Apr 7.4 01:09:27 22° NE 01:09:27 22° NE 01:12:12 10° NNE visible
05 Apr 6.6 02:49:55 39° NNW 02:49:55 39° NNW 02:53:30 10° N visible
06 Apr 7.8 00:35:55 15° ENE 00:35:55 15° ENE 00:37:48 10° NE visible
06 Apr 6.4 02:16:22 46° N 02:16:22 46° N 02:20:03 10° N visible
06 Apr 7.6 03:56:50 14° WNW 03:56:50 14° WNW 03:59:13 10° NNW visible
07 Apr 6.6 01:42:50 41° NNE 01:42:50 41° NNE 01:46:24 10° N visible
07 Apr 7.2 03:23:18 22° NW 03:23:18 22° NW 03:26:34 10° NNW visible
